{"data":{"norad_id":69217,"intl_designator":"2026-115G","name":"STARLINK-37763","alt_names":[],"object_type":"PAYLOAD","status":"ACTIVE","operator":null,"country":"US","launch_date":"2026-05-26","launch_site_code":"AFWTR","launch_vehicle":null,"mission":null,"orbit_class":"UNKNOWN","rcs_meters":null,"size_class":null,"mass_kg":null,"dimensions":null,"purposes":["comms"],"wikipedia_slug":null,"has_3d_model":false,"image_url":null,"decayed_at":null,"tle_current":{"epoch":"2026-09-19T11:47:05.797248Z","epoch_age_seconds":114149,"freshness":"FRESH","line1":"1 69217U 26115G   26262.49103932  .00014858  00000+0  46154-3 0  9997","line2":"2 69217  97.2817 278.5644 0001048  99.7284 260.4078 15.33451949 19134","mean_motion":15.33451949,"eccentricity":0.0001048,"inclination_deg":97.2817,"raan_deg":278.5644,"arg_perigee_deg":99.7284,"mean_anomaly_deg":260.4078,"bstar":0.00046154,"rev_number":1913,"period_min":93.905779110918,"perigee_km":464.80528370573,"apogee_km":466.23971473676,"semimajor_km":6843.6594992212,"source":"CELESTRAK","updated_at":"2026-09-20T09:00:44.102871Z"}}}